sat.trackr.live / text

‹ back to catalog

STARLINK-4271

NORAD 53012 · 2022-076AC

PAYLOAD ACTIVE UNKNOWN

§ Identity

Operator
Country
US
Launch date
2022-07-07
Launch site
AFETR
Launch vehicle
Mass (kg)
RCS (m²)

Purposes: comms

External: N2YO · Heavens-Above · Gunter

§ Orbital elements

Epoch: 2026-05-25T03:44:54.840192Z

Period
95.44 min
Inclination
53.2136°
Eccentricity
0.0001395
Mean motion
15.08837235 rev/d
Perigee alt
538.8 km
Apogee alt
540.7 km
Semi-major
6,917.9 km
B*
6.1549e-5
RAAN
110.8485°
Arg perigee
73.9345°
Mean anomaly
286.1800°
Rev number
21,439

§ Raw data

STARLINK-42711 53012U 22076AC  26145.15619028  .00000692  00000+0  61549-4 0  99932 53012  53.2136 110.8485 0001395  73.9345 286.1800 15.08837235214395

JSON: /api/v1/satellites/53012 · /tle

For live sub-satellite position, see the globe view (requires WebGL).

§ Visibility from observer

Set your observer location to see the next 7 days of passes ≥ 10°. The values pass through the URL so the page stays shareable.

No JS? Fill the form by hand. The geolocation button needs JavaScript.